Погода в Чимбае

Узбекистан     42°56′05″N   59°46′12″E
темп.,
°C
ветер,
м/с
пор.,
м/с
влажн.,
%
обл.,
%
осадки,
мм/ч
давл.,
гПа
погр.,
м
27 февраля, сб
сб2723:00−3ю91659100 0.8 1025674
02:00−2ююз101765100 0.0 1022682
05:00−2ююз91678100 0.4 1021428
08:00−3зсз6108699 0.8 1021287
11:00−1з567175 0.8 1022439
14:00+4зюз565115 0.0 1022772
17:00+7зюз685732 0.0 1022930
20:00+6ююз497994 0.0 1022355
28 февраля, вс
вс2823:00+6юз7128197 0.1 1021474
02:00+6ююз81369100 0.3 1020442
05:00+5ююз71161100 0.3 1020349
08:00+3ю695877 0.0 1020201
11:00+7ююз683569 0.0 1019452
14:00+12ю67270 0.0 10181076
17:00+13ююз56210 0.0 10161326
20:00+8ююв45230 0.0 101671
1 марта, пн
пн123:00+6ю45310 0.0 101757
02:00+5ююв343718 0.0 101642
05:00+4ю344752 0.0 101625
08:00+3ю2355100 0.0 101622
11:00+8всв003898 0.0 1017313
14:00+12ссв112850 0.0 1017941
17:00+12с653626 0.0 1017941
20:00+6с79810 0.0 1020437
2 марта, вт
вт223:00+4с578116 0.0 1022490
02:00+4с457594 0.0 1023639
05:00+4ссз457697 0.0 1023652
08:00+3ссз4584100 0.1 1025368
11:00+3ссз3372100 0.1 1026451
14:00+6сз445994 0.0 1026930
17:00+6сз235597 0.0 10251108
20:00+4ссз225971 0.0 102554
3 марта, ср
ср323:00+2св457275 0.0 1025137
02:00+1в3377100 0.0 102557
05:000юв348665 0.0 102340
08:000юв348856 0.0 102346
11:00+6ююв455939 0.0 1022687
14:00+9ю554524 0.0 10211455
17:00+10ю344562 0.0 10181449
20:00+8юв475296 0.0 1017139